Location: *
(46.1200°N, 11.2700°E)
Time: 16:07:39
(UTC+00:00)

Meteor 1-23 Rocket - Pass Details

Date: 02 March 2021
Orbit: 837 x 888 km, 81.3° (Epoch: 10 April)

Event Time Altitude Azimuth Distance (km) Brightness Sun altitude
Rises 19:30:26 0° 350° (N) 3,404 7.7 -26.1°
Reaches altitude 10° 19:32:51 10° 352° (N) 2,469 6.9 -26.5°
Enters shadow 19:37:59 71° 35° (NE) 897 4.1 -27.3°
